Flag Weather past 2 weeks in Dreieich, Hesse, Germany

Now
39 °F

Overcast.


Feels Like: 36 °F
Forecast: 36 / 40 °F
Wind: 3 mph from East

Location: Frankfurt / M-Flughafen

Current Time: Nov 29, 2014 at 11:00:47 AM

Latest Report: Nov 29, 2014 at 9:00 AM


Visibility: 8 mi

Pressure: 30.03 "Hg

Humidity: 83%

Dew point: 34 °F

Location of DreieichLocation

Historic Weather in Dreieich — Graph

°F

Dreieich temperature yesterday

Maximum temperature yesterday: 41 °F (at 5:00 PM)
Minimum temperature yesterday: 37 °F (at 2:00 AM)
Average temperature yesterday: 40 °F

Past Weeks' High & Low Weather Summary

 TemperatureHumidityPressure
High54 °F (Nov 14, 3:00 PM)100% (Nov 19, 3:00 AM)30.36 "Hg (Nov 19, 3:00 AM)
Low32 °F (Nov 25, 5:00 AM)65% (Nov 21, 3:00 PM)29.54 "Hg (Nov 16, 6:00 AM)
Average44 °F89%30.00 "Hg
* Reported Nov 14 9:00 AM — Nov 29 9:00 AM, Dreieich, Weather by CustomWeather, © 2014

Note: Actual official high and low records may vary slightly from our data, if they occured in-between our weather recording intervals... More about our weather records

Advertising

Dreieich weather history for previous 24 hours

 ConditionsComfort  
Time TempWeatherWind HumidityBarometerVisibility
9:00 AM
Nov 29
39 °FOvercast.3 mph83%30.03 "Hg7 mi
8:00 AM39 °FOvercast.2 mph83%30.02 "Hg7 mi
7:00 AM39 °FOvercast.3 mph82%30.00 "Hg8 mi
6:00 AM39 °FOvercast.3 mph82%29.99 "Hg8 mi
5:00 AM39 °FOvercast.3 mph82%29.98 "Hg8 mi
4:00 AM39 °FOvercast.3 mph82%29.99 "Hg8 mi
3:00 AM40 °FOvercast.3 mph82%29.99 "Hg8 mi
2:00 AM40 °FOvercast.3 mph84%29.98 "Hg8 mi
1:00 AM40 °FOvercast.3 mph84%29.98 "Hg8 mi
12:00 AM40 °FQuite cool.3 mph83%29.98 "HgN/A
11:00 PM
Nov 28
40 °FOvercast.2 mph83%29.97 "Hg8 mi
9:00 PM40 °FOvercast.3 mph83%29.95 "Hg8 mi
8:00 PM40 °FOvercast.3 mph84%29.93 "Hg8 mi
7:00 PM40 °FOvercast.3 mph83%29.93 "Hg7 mi
6:00 PM40 °FOvercast.3 mph83%29.92 "Hg7 mi
5:00 PM41 °FOvercast.5 mph82%29.91 "Hg7 mi
3:00 PM41 °FOvercast.3 mph82%29.88 "Hg7 mi
2:00 PM41 °FOvercast.5 mph85%29.89 "Hg7 mi
1:00 PM41 °FOvercast.6 mph84%29.89 "Hg6 mi
12:00 PM41 °FOvercast.6 mph85%29.90 "Hg6 mi
11:00 AM41 °FOvercast.6 mph86%29.90 "Hg5 mi
Weather by CustomWeather, © 2014

See weather overviewHow to use our weather pages